#timestamp,LO_Frequency,Hit,StdDev 
1692745215.5,286047001.7,N
1692745235.3,286047003.3,N
1692745255.2,286047004.3,N
1692745275.0,286046999.8,N
1692745275.9,286046999.8,N
1692745295.7,286047007.6,Y
1692745315.6,286047001.4,P
1692745335.4,286047002.0,N
1692745355.3,286047005.9,P
1692745375.1,286047007.1,Y
1692745376.0,286047007.1,P
1692745395.8,286047005.3,N
1692745415.7,286047006.1,P
1692745435.5,286047009.2,Y
1692745455.3,286047003.9,P
1692745475.2,286047005.4,P
1692745495.0,286047005.2,P
1692745495.9,286047005.2,Y
1692745515.8,286047002.7,P
1692745535.6,286047004.1,P
1692745555.4,286047004.0,P
1692745575.3,286047004.4,Y
1692745595.1,286046998.8,P
1692745615.9,286046998.9,N
1692745635.7,286047001.2,N
1692745655.5,286046998.8,N
1692745675.4,286047000.8,N
1692745695.2,286047002.1,N
1692745715.0,286047002.6,N
1692745715.9,286047002.6,N
1692745735.8,286047001.9,N
1692745755.6,286047001.6,N
1692745775.4,286047003.4,N
1692745795.3,286047007.2,Y
1692745815.1,286047008.2,P
1692745835.9,286047012.0,P
1692745855.7,286047014.0,P
1692745875.5,286047013.2,N
1692745895.4,286047015.4,Y
1692745915.2,286047005.2,P
1692745935.1,286047005.1,N
1692745936.0,286047005.1,N
1692745955.8,286047006.9,Y
1692745975.6,286047002.8,P
1692745995.5,286047004.4,N
1692746015.3,286047004.4,P
1692746035.1,286047004.3,Y
1692746055.9,286047000.6,P
1692746075.7,286047000.0,N
1692746095.6,286047002.8,N
1692746115.4,286047000.2,N
1692746135.2,286047002.3,N
1692746155.1,286047004.3,N
1692746156.0,286047004.3,N
1692746175.8,286047002.7,N
1692746195.6,286047002.5,N
1692746215.5,286047002.6,N
1692746235.3,286047001.8,N
1692746255.2,286047000.1,N
1692746275.9,286047001.9,N
1692746295.7,286047002.6,N
1692746315.6,286047000.0,N
1692746335.4,286047001.5,N
1692746355.3,286047005.1,Y
1692746375.1,286047003.2,P
1692746376.0,286047003.2,P
1692746395.8,286047006.0,P
1692746415.7,286047005.9,Y
1692746435.5,286047000.2,P
1692746455.3,286047002.1,N
1692746475.2,286047001.9,N
1692746495.0,286047003.7,Y
1692746495.9,286047003.7,P
1692746515.8,286047003.1,P
1692746535.6,286047004.7,P
1692746555.4,286047005.3,Y
1692746575.3,286046999.8,P
1692746595.1,286047000.5,N
1692746615.9,286047000.5,N
1692746635.7,286047002.6,N
1692746655.5,286047003.8,N
1692746675.4,286047007.1,Y
1692746695.2,286047005.5,P
1692746715.1,286047004.2,N
1692746716.0,286047004.2,N
1692746735.8,286046998.8,N
1692746755.6,286046998.0,N
1692746775.5,286046993.9,N
1692746795.3,286046992.6,N
1692746815.1,286046992.4,N
1692746835.9,286046991.8,N
1692746855.7,286046994.5,N
1692746875.6,286046993.3,N
1692746895.4,286046995.8,N
1692746915.2,286046993.4,N
1692746935.1,286046994.2,N
1692746936.0,286046994.2,N
1692746955.8,286046995.8,N
1692746975.6,286046995.6,N
1692746995.5,286046997.8,N
1692747015.3,286047002.5,N
1692747035.2,286047005.9,N
1692747055.9,286047004.4,N
1692747075.7,286047001.3,N
1692747095.6,286047003.6,N
1692747115.4,286047004.0,N
1692747135.2,286047005.4,N
1692747155.1,286047008.8,N
1692747156.0,286047008.8,N
1692747175.8,286047008.3,N
1692747195.7,286047007.5,N
1692747215.5,286047006.6,N
1692747235.3,286047008.6,N
1692747255.2,286047009.6,N
1692747275.9,286047010.1,N
1692747295.7,286047010.6,N
1692747315.6,286047007.7,N
1692747335.4,286047008.2,N
1692747355.2,286047010.8,N
1692747375.1,286047007.1,N
1692747376.0,286047007.1,N
1692747395.8,286047003.6,N
1692747415.7,286047000.9,N
1692747435.5,286046999.0,N
1692747455.3,286046997.5,N
1692747475.2,286046997.1,N
1692747495.0,286046995.4,N
1692747495.9,286046995.4,N
1692747515.7,286046993.5,N
1692747535.6,286046992.3,N
1692747555.4,286046992.3,N
1692747575.3,286046992.2,N
1692747595.1,286046992.8,N
1692747596.0,286046992.8,N
1692747615.8,286046992.2,N
1692747635.7,286046992.6,N
1692747655.5,286046991.3,N
1692747675.3,286046991.3,N
1692747695.2,286046990.6,N
1692747715.0,286046991.4,N
1692747715.9,286046991.4,N
1692747735.8,286046990.5,N
1692747755.6,286046990.6,N
1692747775.4,286046991.4,N
1692747795.3,286046991.8,N
1692747815.1,286046990.6,N
1692747835.8,286046992.1,N
1692747855.7,286046994.8,N
1692747875.5,286046993.0,N
1692747895.4,286046994.4,N
1692747915.2,286046994.4,N
1692747935.0,286046992.0,N
1692747935.9,286046992.0,Y
1692747955.8,286046999.3,P
1692747975.6,286046998.2,N
1692747995.4,286046999.8,N
1692748015.3,286047002.6,N
1692748035.1,286047004.1,N
1692748055.9,286047001.7,N
1692748075.7,286047000.4,N
1692748095.5,286047002.5,N
1692748115.4,286047003.5,N
1692748135.2,286047004.3,N
1692748155.0,286047001.5,N
1692748155.9,286047001.5,N
1692748175.8,286047003.2,N
1692748195.6,286046999.9,N
1692748215.5,286046998.9,N
1692748235.3,286046999.7,N
1692748255.1,286047011.9,Y
1692748275.9,286047000.9,P
1692748295.7,286047001.1,P
1692748315.6,286046999.4,P
1692748335.4,286047002.8,Y
1692748355.2,286047002.0,P
1692748375.1,286047001.5,N
1692748376.0,286047001.5,N
1692748395.8,286047002.1,Y
1692748415.7,286047000.5,P
1692748435.5,286046998.3,P
1692748455.3,286046998.6,N
1692748475.2,286046999.3,N
1692748495.9,286046998.6,N
1692748515.7,286047000.0,N
1692748535.6,286047001.9,N
1692748555.4,286047002.3,N
1692748575.3,286046999.7,N
1692748595.1,286047005.9,Y
1692748596.0,286047005.9,P
1692748615.8,286047003.3,N
1692748635.7,286047000.3,N
1692748655.5,286047000.8,N
1692748675.3,286047003.8,N
1692748695.2,286047003.1,N
1692748715.0,286047003.1,N
1692748715.9,286047003.1,N
1692748735.8,286047001.4,N
1692748755.6,286047000.4,N
1692748775.4,286047002.3,N
1692748795.3,286047001.9,N
